Starlink 3151

operational
NORAD ID: 49408 Int'l Des: 2021-104 Owner: SPXS Country: US Constellation: starlink
LEOCIRCULAR

About Starlink 3151

Description loading...

Live Position

Loading 3D Globe...

Upcoming Passes

Altitude History

Altitude vs Time

uPlot chart will show altitude changes over time

Two-Line Element Set

1 49408U 21104A 26034.26805616 -.00000285 00000-0 19027-6 0 9993
2 49408 53.2177 23.6736 0001449 99.2120 260.9036 15.08843083233431
Epoch: Feb 3, 2026 • Age: 20 hours

Current Status

Altitude 545.6 km
Velocity 7.59 km/s
Sub-Earth Point -20.32°S, 45.39°E
Launch Date Nov 13, 2021
Age 4.2 years
Type internet

Technical Details

Classification Payload
Mass 290.00 kg
Dry Mass 270.00 kg
Total Mass 290.00 kg
Length 0.20 m
Diameter 2.80 m
Span 9.00 m
Shape Box + pan
Manufacturer SPXS
Bus Type Starlink
Phase Status In Orbit
Owner/State SPXS/US

Large Constellations

Loading constellations...